This is the latest recevied weather packets stored in our database for station/object AC1IX. If no packets are shown the sender has not sent any weather packets the latest 10 day(s).
| Time | Temp. | Humidity | Pressure | Rain* | Wind** | Luminosity | Snow |
|---|---|---|---|---|---|---|---|
| 1777983050 | 13.89° C | 96% | 1009.4 hPa | 0 mm | - | 149 W/m² | - |
| 1777982746 | 13.33° C | 98% | 1009.6 hPa | 0 mm | - | 110 W/m² | - |
| 1777982442 | 13.33° C | 98% | 1009.4 hPa | 0 mm | - | 88 W/m² | - |
| 1777982136 | 13.33° C | 99% | 1009.5 hPa | 0 mm | - | 92 W/m² | - |
| 1777981834 | 12.78° C | 99% | 1009.4 hPa | 0 mm | - | 79 W/m² | - |
| 1777981531 | 12.78° C | 99% | 1009.6 hPa | 0 mm | - | 89 W/m² | - |
| 1777981227 | 12.22° C | 98% | 1009.5 hPa | 0 mm | - | 72 W/m² | - |
| 1777980924 | 12.22° C | 98% | 1009.6 hPa | 0 mm | - | 93 W/m² | - |
| 1777980620 | 12.22° C | 97% | 1009.5 hPa | 0 mm | - | 81 W/m² | - |
| 1777980317 | 12.22° C | 97% | 1009.7 hPa | 0 mm | - | 61 W/m² | - |
| 1777980015 | 12.22° C | 95% | 1009.6 hPa | 0 mm | - | 59 W/m² | - |
| 1777979714 | 12.22° C | 94% | 1009.6 hPa | 1.27 mm | - | 49 W/m² | - |
| 1777979410 | 12.22° C | 93% | 1009.6 hPa | 3.05 mm | - | 33 W/m² | - |
| 1777979107 | 12.78° C | 90% | 1009.2 hPa | 3.05 mm | - | 6 W/m² | - |
| 1777978804 | 13.33° C | 87% | 1009.5 hPa | 1.27 mm | - | 9 W/m² | - |
| 1777978501 | 13.89° C | 83% | 1009.7 hPa | 0 mm | - | 14 W/m² | - |
| 1777978196 | 15° C | 75% | 1010 hPa | 0 mm | - | 6 W/m² | - |
| 1777977894 | 15.56° C | 68% | 1010.2 hPa | 0 mm | - | 4 W/m² | - |
| 1777977590 | 15.56° C | 66% | 1009.8 hPa | 0 mm | - | 14 W/m² | - |
| 1777977288 | 15.56° C | 63% | 1009.7 hPa | 0 mm | - | 42 W/m² | - |
| 1777976985 | 15° C | 64% | 1009.3 hPa | 0 mm | - | 52 W/m² | - |
| 1777976682 | 15° C | 65% | 1009.3 hPa | 0 mm | - | 62 W/m² | - |
| 1777976379 | 15° C | 65% | 1009.2 hPa | 0 mm | - | 40 W/m² | - |
| 1777976078 | 15° C | 64% | 1009.1 hPa | 0 mm | - | 15 W/m² | - |
| 1777975774 | 15° C | 64% | 1008.8 hPa | 0 mm | - | 9 W/m² | - |
* Rain latest hour (hover to see other rain measurements)
** Current wind speed in m/s (hover to see current wind gust speed)